sat.trackr.live / text

‹ back to catalog

STARLINK-5418

NORAD 54852 · 2022-177AJ

PAYLOAD ACTIVE UNKNOWN

§ Identity

Operator
Country
US
Launch date
2022-12-28
Launch site
AFETR
Launch vehicle
Mass (kg)
RCS (m²)

Purposes: comms

External: N2YO · Heavens-Above · Gunter

§ Orbital elements

Epoch: 2026-05-24T18:59:34.520928Z

Period
94.27 min
Inclination
43.0067°
Eccentricity
0.0001262
Mean motion
15.27583012 rev/d
Perigee alt
482.2 km
Apogee alt
483.9 km
Semi-major
6,861.2 km
B*
1.0008e-4
RAAN
51.4360°
Arg perigee
262.7926°
Mean anomaly
97.2782°
Rev number
18,873

§ Raw data

STARLINK-54181 54852U 22177AJ  26144.79137177  .00002493  00000+0  10008-3 0  99912 54852  43.0067  51.4360 0001262 262.7926  97.2782 15.27583012188736

JSON: /api/v1/satellites/54852 · /tle

For live sub-satellite position, see the globe view (requires WebGL).

§ Visibility from observer

Set your observer location to see the next 7 days of passes ≥ 10°. The values pass through the URL so the page stays shareable.

No JS? Fill the form by hand. The geolocation button needs JavaScript.